Location: Austin
(30.3000°N, 97.7500°W)
Time: 04:07:54
(UTC-06:00)

CZ-4B DEB - Pass Details

Date: 20 November 2023
Orbit: 838 x 858 km, 99.0° (Epoch: 05 December)

Event Time Altitude Azimuth Distance (km) Brightness Sun altitude
Rises 19:17:23 0° 156° (SSE) 3,395 7.2 -22.6°
Reaches altitude 10° 19:19:46 10° 152° (SSE) 2,465 6.4 -23.1°
Enters shadow 19:21:33 21° 147° (SSE) 1,798 5.7 -23.4°
Exits shadow 19:25:11 59° 71° (ENE) 976 4.1 -24.2°
Drops below altitude 10° 19:30:33 10° 356° (N) 2,490 6.6 -25.4°
Sets 19:32:58 0° 352° (N) 3,431 7.4 -25.9°
